User: anonymous   Login
Location: Unspecified
(0.0000°N, 0.0000°E)
Time: 04:03:38
(UTC+00:00)
Language:

OAO 1 - Orbit

View from above orbital plane
View from above orbital plane
View from above satellite
View from above satellite

Ground track
Ground track

The orbit data is extracted from the following two-line orbital elements,

1  2142U 66031A   19054.35358359 -.00000039  00000-0 -72122-5 0  9998
2  2142  35.0450 157.3412 0007491 250.4850 109.5028 14.33883163767898
Epoch (UTC): 23 February 2019 08:29:09
Eccentricity: 0.0007491
inclination: 35.0450°
perigee height: 773 km
apogee height: 784 km
right ascension of ascending node: 157.3412°
argument of perigee: 250.4850°
revolutions per day: 14.33883163
mean anomaly at epoch: 109.5028°
orbit number at epoch: 76789

The dashed part of the orbit path shows where the satellite is in the earth's shadow,  

DLR